Year,Month,Day,Hour,Minute,Value (Times are PST for temperature in C)
2008,09,01,00,00,11.60
2008,09,01,00,01,11.60
2008,09,01,00,02,11.60
2008,09,01,00,03,11.60
2008,09,01,00,04,11.60
2008,09,01,00,05,11.60
2008,09,01,00,06,11.60
2008,09,01,00,07,11.50
2008,09,01,00,08,11.40
2008,09,01,00,09,11.40
2008,09,01,00,10,11.40
2008,09,01,00,11,11.40
2008,09,01,00,12,11.40
2008,09,01,00,13,11.40
2008,09,01,00,14,11.40
2008,09,01,00,15,11.30
2008,09,01,00,16,11.30
2008,09,01,00,17,11.30
2008,09,01,00,18,11.30
2008,09,01,00,19,11.20
2008,09,01,00,20,11.20
2008,09,01,00,21,11.20
2008,09,01,00,22,11.10
2008,09,01,00,23,11.10
2008,09,01,00,24,11.10
2008,09,01,00,25,11.10
2008,09,01,00,26,10.90
2008,09,01,00,27,10.90
2008,09,01,00,28,10.90
2008,09,01,00,29,10.90
2008,09,01,00,30,10.80
2008,09,01,00,31,10.80
2008,09,01,00,32,10.70
2008,09,01,00,33,10.70
2008,09,01,00,34,10.60
2008,09,01,00,35,10.60
2008,09,01,00,36,10.60
2008,09,01,00,37,10.60
2008,09,01,00,38,10.60
2008,09,01,00,39,10.60
2008,09,01,00,40,10.60
2008,09,01,00,41,10.50
2008,09,01,00,42,10.40
2008,09,01,00,43,10.40
2008,09,01,00,44,10.40
2008,09,01,00,45,10.40
2008,09,01,00,46,10.40
2008,09,01,00,47,10.40
2008,09,01,00,48,10.40
2008,09,01,00,49,10.40
2008,09,01,00,50,10.40
2008,09,01,00,51,10.40
2008,09,01,00,52,10.40
2008,09,01,00,53,10.40
2008,09,01,00,54,10.40
2008,09,01,00,55,10.40
2008,09,01,00,56,10.40
2008,09,01,00,57,10.40
2008,09,01,00,58,10.40
2008,09,01,00,59,10.40
2008,09,01,01,00,10.40
2008,09,01,01,01,10.40
2008,09,01,01,02,10.40
2008,09,01,01,03,10.30
2008,09,01,01,04,10.30
2008,09,01,01,05,10.30
2008,09,01,01,06,10.40
2008,09,01,01,07,10.40
2008,09,01,01,08,10.40
2008,09,01,01,09,10.40
2008,09,01,01,10,10.40
2008,09,01,01,11,10.50
2008,09,01,01,12,10.60
2008,09,01,01,13,10.60
2008,09,01,01,14,10.40
2008,09,01,01,15,10.40
2008,09,01,01,16,10.40
2008,09,01,01,17,10.30
2008,09,01,01,18,10.30
2008,09,01,01,19,10.20
2008,09,01,01,20,10.20
2008,09,01,01,21,10.20
2008,09,01,01,22,10.10
2008,09,01,01,23,10.10
2008,09,01,01,24,10.10
2008,09,01,01,25,10.10
2008,09,01,01,26,10.10
2008,09,01,01,27,10.00
2008,09,01,01,28,9.90
2008,09,01,01,29,9.90
2008,09,01,01,30,9.90
2008,09,01,01,31,9.90
2008,09,01,01,32,9.90
2008,09,01,01,33,9.90
2008,09,01,01,34,9.90
2008,09,01,01,35,9.90
2008,09,01,01,36,9.90
2008,09,01,01,37,9.90
2008,09,01,01,38,9.90
2008,09,01,01,39,9.90
2008,09,01,01,40,9.90
2008,09,01,01,41,9.90
2008,09,01,01,42,9.90
2008,09,01,01,43,9.90
2008,09,01,01,44,9.90
2008,09,01,01,45,9.80
2008,09,01,01,46,9.80
2008,09,01,01,47,9.80
2008,09,01,01,48,9.80
2008,09,01,01,49,9.80
2008,09,01,01,50,9.70
2008,09,01,01,51,9.70
2008,09,01,01,52,9.70
2008,09,01,01,53,9.70
2008,09,01,01,54,9.70
2008,09,01,01,55,9.70
2008,09,01,01,56,9.70
2008,09,01,01,57,9.60
2008,09,01,01,58,9.60
2008,09,01,01,59,9.60
2008,09,01,02,00,9.50
2008,09,01,02,01,9.50
2008,09,01,02,02,9.50
2008,09,01,02,03,9.50
2008,09,01,02,04,9.40
2008,09,01,02,05,9.40
2008,09,01,02,06,9.40
2008,09,01,02,07,9.40
2008,09,01,02,08,9.40
2008,09,01,02,09,9.40
2008,09,01,02,10,9.40
2008,09,01,02,11,9.40
2008,09,01,02,12,9.40
2008,09,01,02,13,9.40
2008,09,01,02,14,9.40
2008,09,01,02,15,9.40
2008,09,01,02,16,9.30
2008,09,01,02,17,9.30
2008,09,01,02,18,9.30
2008,09,01,02,19,9.30
2008,09,01,02,20,9.30
2008,09,01,02,21,9.20
2008,09,01,02,22,9.20
2008,09,01,02,23,9.20
2008,09,01,02,24,9.20
2008,09,01,02,25,9.20
2008,09,01,02,26,9.20
2008,09,01,02,27,9.20
2008,09,01,02,28,9.20
2008,09,01,02,29,9.20
2008,09,01,02,30,9.20
2008,09,01,02,31,9.20
2008,09,01,02,32,9.20
2008,09,01,02,33,9.20
2008,09,01,02,34,9.20
2008,09,01,02,35,9.20
2008,09,01,02,36,9.10
2008,09,01,02,37,9.10
2008,09,01,02,38,9.10
2008,09,01,02,39,9.10
2008,09,01,02,40,9.00
2008,09,01,02,41,9.00
2008,09,01,02,42,9.00
2008,09,01,02,43,9.00
2008,09,01,02,44,9.00
2008,09,01,02,45,9.00
2008,09,01,02,46,8.90
2008,09,01,02,47,8.90
2008,09,01,02,48,8.90
2008,09,01,02,49,8.90
2008,09,01,02,50,8.90
2008,09,01,02,51,8.90
2008,09,01,02,52,8.90
2008,09,01,02,53,8.90
2008,09,01,02,54,8.90
2008,09,01,02,55,8.90
2008,09,01,02,56,8.90
2008,09,01,02,57,8.90
2008,09,01,02,58,8.90
2008,09,01,02,59,8.90
2008,09,01,03,00,8.80
2008,09,01,03,01,8.80
2008,09,01,03,02,8.80
2008,09,01,03,03,8.80
2008,09,01,03,04,8.80
2008,09,01,03,05,8.80
2008,09,01,03,06,8.80
2008,09,01,03,07,8.80
2008,09,01,03,08,8.90
2008,09,01,03,09,8.80
2008,09,01,03,10,8.80
2008,09,01,03,11,8.80
2008,09,01,03,12,8.80
2008,09,01,03,13,8.80
2008,09,01,03,14,8.80
2008,09,01,03,15,8.80
2008,09,01,03,16,8.80
2008,09,01,03,17,8.80
2008,09,01,03,18,8.70
2008,09,01,03,19,8.70
2008,09,01,03,20,8.70
2008,09,01,03,21,8.70
2008,09,01,03,22,8.70
2008,09,01,03,23,8.70
2008,09,01,03,24,8.60
2008,09,01,03,25,8.60
2008,09,01,03,26,8.60
2008,09,01,03,27,8.60
2008,09,01,03,28,8.50
2008,09,01,03,29,8.50
2008,09,01,03,30,8.50
2008,09,01,03,31,8.50
2008,09,01,03,32,8.50
2008,09,01,03,33,8.50
2008,09,01,03,34,8.50
2008,09,01,03,35,8.50
2008,09,01,03,36,8.50
2008,09,01,03,37,8.40
2008,09,01,03,38,8.40
2008,09,01,03,39,8.40
2008,09,01,03,40,8.40
2008,09,01,03,41,8.40
2008,09,01,03,42,8.40
2008,09,01,03,43,8.30
2008,09,01,03,44,8.30
2008,09,01,03,45,8.30
2008,09,01,03,46,8.20
2008,09,01,03,47,8.20
2008,09,01,03,48,8.20
2008,09,01,03,49,8.20
2008,09,01,03,50,8.20
2008,09,01,03,51,8.20
2008,09,01,03,52,8.20
2008,09,01,03,53,8.20
2008,09,01,03,54,8.20
2008,09,01,03,55,8.20
2008,09,01,03,56,8.20
2008,09,01,03,57,8.10
2008,09,01,03,58,8.10
2008,09,01,03,59,8.10
2008,09,01,04,00,8.10
2008,09,01,04,01,8.10
2008,09,01,04,02,8.00
2008,09,01,04,03,8.00
2008,09,01,04,04,8.00
2008,09,01,04,05,8.00
2008,09,01,04,06,8.00
2008,09,01,04,07,8.00
2008,09,01,04,08,8.00
2008,09,01,04,09,8.00
2008,09,01,04,10,8.00
2008,09,01,04,11,8.00
2008,09,01,04,12,8.00
2008,09,01,04,13,8.10
2008,09,01,04,14,8.10
2008,09,01,04,15,8.20
2008,09,01,04,16,8.20
2008,09,01,04,17,8.20
2008,09,01,04,18,8.20
2008,09,01,04,19,8.20
2008,09,01,04,20,8.20
2008,09,01,04,21,8.20
2008,09,01,04,22,8.20
2008,09,01,04,23,8.20
2008,09,01,04,24,8.20
2008,09,01,04,25,8.20
2008,09,01,04,26,8.20
2008,09,01,04,27,8.20
2008,09,01,04,28,8.20
2008,09,01,04,29,8.20
2008,09,01,04,30,8.20
2008,09,01,04,31,8.20
2008,09,01,04,32,8.20
2008,09,01,04,33,8.20
2008,09,01,04,34,8.20
2008,09,01,04,35,8.20
2008,09,01,04,36,8.20
2008,09,01,04,37,8.20
2008,09,01,04,38,8.20
2008,09,01,04,39,8.20
2008,09,01,04,40,8.20
2008,09,01,04,41,8.10
2008,09,01,04,42,8.10
2008,09,01,04,43,8.10
2008,09,01,04,44,8.10
2008,09,01,04,45,8.10
2008,09,01,04,46,8.10
2008,09,01,04,47,8.10
2008,09,01,04,48,8.10
2008,09,01,04,49,8.00
2008,09,01,04,50,8.00
2008,09,01,04,51,8.00
2008,09,01,04,52,8.00
2008,09,01,04,53,8.00
2008,09,01,04,54,8.00
2008,09,01,04,55,8.00
2008,09,01,04,56,7.90
2008,09,01,04,57,7.90
2008,09,01,04,58,7.90
2008,09,01,04,59,7.90
2008,09,01,05,00,7.90
2008,09,01,05,01,7.90
2008,09,01,05,02,7.80
2008,09,01,05,03,7.80
2008,09,01,05,04,7.80
2008,09,01,05,05,7.80
2008,09,01,05,06,7.80
2008,09,01,05,07,7.80
2008,09,01,05,08,7.80
2008,09,01,05,09,7.80
2008,09,01,05,10,7.80
2008,09,01,05,11,7.80
2008,09,01,05,12,7.80
2008,09,01,05,13,7.80
2008,09,01,05,14,7.70
2008,09,01,05,15,7.70
2008,09,01,05,16,7.70
2008,09,01,05,17,7.60
2008,09,01,05,18,7.60
2008,09,01,05,19,7.60
2008,09,01,05,20,7.60
2008,09,01,05,21,7.70
2008,09,01,05,22,7.70
2008,09,01,05,23,7.70
2008,09,01,05,24,7.70
2008,09,01,05,25,7.80
2008,09,01,05,26,7.80
2008,09,01,05,27,7.80
2008,09,01,05,28,7.80
2008,09,01,05,29,7.80
2008,09,01,05,30,7.80
2008,09,01,05,31,7.80
2008,09,01,05,32,7.70
2008,09,01,05,33,7.70
2008,09,01,05,34,7.70
2008,09,01,05,35,7.70
2008,09,01,05,36,7.70
2008,09,01,05,37,7.60
2008,09,01,05,38,7.60
2008,09,01,05,39,7.60
2008,09,01,05,40,7.50
2008,09,01,05,41,7.50
2008,09,01,05,42,7.50
2008,09,01,05,43,7.50
2008,09,01,05,44,7.50
2008,09,01,05,45,7.50
2008,09,01,05,46,7.50
2008,09,01,05,47,7.50
2008,09,01,05,48,7.50
2008,09,01,05,49,7.50
2008,09,01,05,50,7.50
2008,09,01,05,51,7.50
2008,09,01,05,52,7.50
2008,09,01,05,53,7.50
2008,09,01,05,54,7.50
2008,09,01,05,55,7.60
2008,09,01,05,56,7.60
2008,09,01,05,57,7.60
2008,09,01,05,58,7.60
2008,09,01,05,59,7.60
2008,09,01,06,00,7.60
2008,09,01,06,01,7.60
2008,09,01,06,02,7.50
2008,09,01,06,03,7.50
2008,09,01,06,04,7.50
2008,09,01,06,05,7.50
2008,09,01,06,06,7.50
2008,09,01,06,07,7.40
2008,09,01,06,08,7.40
2008,09,01,06,09,7.40
2008,09,01,06,10,7.40
2008,09,01,06,11,7.40
2008,09,01,06,12,7.40
2008,09,01,06,13,7.40
2008,09,01,06,14,7.40
2008,09,01,06,15,7.40
2008,09,01,06,16,7.40
2008,09,01,06,17,7.40
2008,09,01,06,18,7.40
2008,09,01,06,19,7.40
2008,09,01,06,20,7.40
2008,09,01,06,21,7.40
2008,09,01,06,22,7.40
2008,09,01,06,23,7.40
2008,09,01,06,24,7.40
2008,09,01,06,25,7.40
2008,09,01,06,26,7.40
2008,09,01,06,27,7.40
2008,09,01,06,28,7.40
2008,09,01,06,29,7.40
2008,09,01,06,30,7.40
2008,09,01,06,31,7.40
2008,09,01,06,32,7.40
2008,09,01,06,33,7.40
2008,09,01,06,34,7.40
2008,09,01,06,35,7.40
2008,09,01,06,36,7.40
2008,09,01,06,37,7.40
2008,09,01,06,38,7.40
2008,09,01,06,39,7.40
2008,09,01,06,40,7.30
2008,09,01,06,41,7.30
2008,09,01,06,42,7.30
2008,09,01,06,43,7.30
2008,09,01,06,44,7.30
2008,09,01,06,45,7.30
2008,09,01,06,46,7.30
2008,09,01,06,47,7.30
2008,09,01,06,48,7.30
2008,09,01,06,49,7.30
2008,09,01,06,50,7.30
2008,09,01,06,51,7.30
2008,09,01,06,52,7.30
2008,09,01,06,53,7.30
2008,09,01,06,54,7.30
2008,09,01,06,55,7.30
2008,09,01,06,56,7.30
2008,09,01,06,57,7.30
2008,09,01,06,58,7.30
2008,09,01,06,59,7.30
2008,09,01,07,00,7.30
2008,09,01,07,01,7.30
2008,09,01,07,02,7.30
2008,09,01,07,03,7.30
2008,09,01,07,04,7.30
2008,09,01,07,05,7.30
2008,09,01,07,06,7.30
2008,09,01,07,07,7.30
2008,09,01,07,08,7.30
2008,09,01,07,09,7.40
2008,09,01,07,10,7.40
2008,09,01,07,11,7.40
2008,09,01,07,12,7.40
2008,09,01,07,13,7.40
2008,09,01,07,14,7.40
2008,09,01,07,15,7.40
2008,09,01,07,16,7.40
2008,09,01,07,17,7.50
2008,09,01,07,18,7.50
2008,09,01,07,19,7.50
2008,09,01,07,20,7.50
2008,09,01,07,21,7.50
2008,09,01,07,22,7.60
2008,09,01,07,23,7.60
2008,09,01,07,24,7.60
2008,09,01,07,25,7.60
2008,09,01,07,26,7.60
2008,09,01,07,27,7.70
2008,09,01,07,28,7.70
2008,09,01,07,29,7.70
2008,09,01,07,30,7.70
2008,09,01,07,31,7.80
2008,09,01,07,32,7.80
2008,09,01,07,33,7.80
2008,09,01,07,34,7.80
2008,09,01,07,35,7.90
2008,09,01,07,36,7.90
2008,09,01,07,37,7.90
2008,09,01,07,38,7.90
2008,09,01,07,39,8.00
2008,09,01,07,40,8.00
2008,09,01,07,41,8.10
2008,09,01,07,42,8.10
2008,09,01,07,43,8.20
2008,09,01,07,44,8.20
2008,09,01,07,45,8.20
2008,09,01,07,46,8.20
2008,09,01,07,47,8.20
2008,09,01,07,48,8.20
2008,09,01,07,49,8.30
2008,09,01,07,50,8.30
2008,09,01,07,51,8.30
2008,09,01,07,52,8.30
2008,09,01,07,53,8.30
2008,09,01,07,54,8.40
2008,09,01,07,55,8.40
2008,09,01,07,56,8.40
2008,09,01,07,57,8.50
2008,09,01,07,58,8.50
2008,09,01,07,59,8.50
2008,09,01,08,00,8.50
2008,09,01,08,01,8.60
2008,09,01,08,02,8.60
2008,09,01,08,03,8.60
2008,09,01,08,04,8.60
2008,09,01,08,05,8.70
2008,09,01,08,06,8.70
2008,09,01,08,07,8.70
2008,09,01,08,08,8.70
2008,09,01,08,09,8.80
2008,09,01,08,10,8.80
2008,09,01,08,11,8.80
2008,09,01,08,12,8.90
2008,09,01,08,13,8.90
2008,09,01,08,14,8.90
2008,09,01,08,15,8.90
2008,09,01,08,16,9.00
2008,09,01,08,17,9.00
2008,09,01,08,18,9.00
2008,09,01,08,19,9.00
2008,09,01,08,20,9.10
2008,09,01,08,21,9.10
2008,09,01,08,22,9.20
2008,09,01,08,23,9.20
2008,09,01,08,24,9.20
2008,09,01,08,25,9.20
2008,09,01,08,26,9.30
2008,09,01,08,27,9.30
2008,09,01,08,28,9.30
2008,09,01,08,29,9.40
2008,09,01,08,30,9.50
2008,09,01,08,31,9.60
2008,09,01,08,32,9.70
2008,09,01,08,33,9.70
2008,09,01,08,34,9.80
2008,09,01,08,35,9.90
2008,09,01,08,36,9.90
2008,09,01,08,37,10.00
2008,09,01,08,38,10.10
2008,09,01,08,39,10.20
2008,09,01,08,40,10.30
2008,09,01,08,41,10.40
2008,09,01,08,42,10.50
2008,09,01,08,43,10.60
2008,09,01,08,44,10.60
2008,09,01,08,45,10.60
2008,09,01,08,46,10.70
2008,09,01,08,47,10.80
2008,09,01,08,48,10.90
2008,09,01,08,49,10.90
2008,09,01,08,50,11.00
2008,09,01,08,51,11.10
2008,09,01,08,52,11.20
2008,09,01,08,53,11.20
2008,09,01,08,54,11.30
2008,09,01,08,55,11.30
2008,09,01,08,56,11.40
2008,09,01,08,57,11.40
2008,09,01,08,58,11.40
2008,09,01,08,59,11.50
2008,09,01,09,00,11.60
2008,09,01,09,01,11.70
2008,09,01,09,02,11.70
2008,09,01,09,03,11.80
2008,09,01,09,04,11.80
2008,09,01,09,05,11.80
2008,09,01,09,06,11.90
2008,09,01,09,07,12.00
2008,09,01,09,08,12.10
2008,09,01,09,09,12.10
2008,09,01,09,10,12.20
2008,09,01,09,11,12.30
2008,09,01,09,12,12.30
2008,09,01,09,13,12.40
2008,09,01,09,14,12.50
2008,09,01,09,15,12.70
2008,09,01,09,16,12.80
2008,09,01,09,17,12.80
2008,09,01,09,18,12.90
2008,09,01,09,19,12.90
2008,09,01,09,20,12.90
2008,09,01,09,21,12.90
2008,09,01,09,22,12.90
2008,09,01,09,23,12.80
2008,09,01,09,24,12.80
2008,09,01,09,25,12.80
2008,09,01,09,26,12.90
2008,09,01,09,27,12.90
2008,09,01,09,28,12.90
2008,09,01,09,29,13.00
2008,09,01,09,30,13.00
2008,09,01,09,31,13.10
2008,09,01,09,32,13.10
2008,09,01,09,33,13.10
2008,09,01,09,34,13.20
2008,09,01,09,35,13.20
2008,09,01,09,36,13.20
2008,09,01,09,37,13.30
2008,09,01,09,38,13.30
2008,09,01,09,39,13.30
2008,09,01,09,40,13.40
2008,09,01,09,41,13.50
2008,09,01,09,42,13.60
2008,09,01,09,43,13.70
2008,09,01,09,44,13.80
2008,09,01,09,45,13.90
2008,09,01,09,46,13.90
2008,09,01,09,47,14.00
2008,09,01,09,48,14.10
2008,09,01,09,49,14.20
2008,09,01,09,50,14.20
2008,09,01,09,51,14.30
2008,09,01,09,52,14.50
2008,09,01,09,53,14.60
2008,09,01,09,54,14.80
2008,09,01,09,55,14.80
2008,09,01,09,56,14.90
2008,09,01,09,57,15.00
2008,09,01,09,58,15.00
2008,09,01,09,59,15.10
2008,09,01,10,00,15.10
2008,09,01,10,01,15.20
2008,09,01,10,02,15.10
2008,09,01,10,03,15.10
2008,09,01,10,04,15.10
2008,09,01,10,05,15.10
2008,09,01,10,06,15.00
2008,09,01,10,07,15.00
2008,09,01,10,08,15.00
2008,09,01,10,09,15.00
2008,09,01,10,10,15.10
2008,09,01,10,11,15.20
2008,09,01,10,12,15.20
2008,09,01,10,13,15.30
2008,09,01,10,14,15.30
2008,09,01,10,15,15.30
2008,09,01,10,16,15.30
2008,09,01,10,17,15.40
2008,09,01,10,18,15.40
2008,09,01,10,19,15.40
2008,09,01,10,20,15.50
2008,09,01,10,21,15.60
2008,09,01,10,22,15.70
2008,09,01,10,23,15.70
2008,09,01,10,24,15.70
2008,09,01,10,25,15.60
2008,09,01,10,26,15.50
2008,09,01,10,27,15.40
2008,09,01,10,28,15.30
2008,09,01,10,29,15.30
2008,09,01,10,30,15.30
2008,09,01,10,31,15.30
2008,09,01,10,32,15.30
2008,09,01,10,33,15.30
2008,09,01,10,34,15.30
2008,09,01,10,35,15.20
2008,09,01,10,36,15.20
2008,09,01,10,37,15.30
2008,09,01,10,38,15.30
2008,09,01,10,39,15.30
2008,09,01,10,40,15.30
2008,09,01,10,41,15.50
2008,09,01,10,42,15.60
2008,09,01,10,43,15.70
2008,09,01,10,44,15.80
2008,09,01,10,45,15.80
2008,09,01,10,46,15.80
2008,09,01,10,47,15.80
2008,09,01,10,48,15.80
2008,09,01,10,49,15.80
2008,09,01,10,50,15.80
2008,09,01,10,51,15.70
2008,09,01,10,52,15.70
2008,09,01,10,53,15.80
2008,09,01,10,54,15.70
2008,09,01,10,55,15.70
2008,09,01,10,56,15.60
2008,09,01,10,57,15.60
2008,09,01,10,58,15.50
2008,09,01,10,59,15.30
2008,09,01,11,00,15.20
2008,09,01,11,01,15.20
2008,09,01,11,02,15.20
2008,09,01,11,03,15.10
2008,09,01,11,04,14.90
2008,09,01,11,05,14.80
2008,09,01,11,06,14.70
2008,09,01,11,07,14.60
2008,09,01,11,08,14.50
2008,09,01,11,09,14.50
2008,09,01,11,10,14.50
2008,09,01,11,11,14.50
2008,09,01,11,12,14.50
2008,09,01,11,13,14.50
2008,09,01,11,14,14.50
2008,09,01,11,15,14.60
2008,09,01,11,16,14.40
2008,09,01,11,17,14.20
2008,09,01,11,18,14.10
2008,09,01,11,19,14.10
2008,09,01,11,20,14.20
2008,09,01,11,21,14.20
2008,09,01,11,22,14.20
2008,09,01,11,23,14.20
2008,09,01,11,24,14.20
2008,09,01,11,25,14.10
2008,09,01,11,26,14.00
2008,09,01,11,27,14.00
2008,09,01,11,28,14.00
2008,09,01,11,29,13.90
2008,09,01,11,30,14.00
2008,09,01,11,31,14.00
2008,09,01,11,32,14.10
2008,09,01,11,33,14.20
2008,09,01,11,34,14.40
2008,09,01,11,35,14.50
2008,09,01,11,36,14.50
2008,09,01,11,37,14.30
2008,09,01,11,38,14.20
2008,09,01,11,39,14.20
2008,09,01,11,40,14.20
2008,09,01,11,41,14.30
2008,09,01,11,42,14.20
2008,09,01,11,43,14.20
2008,09,01,11,44,14.20
2008,09,01,11,45,14.20
2008,09,01,11,46,14.10
2008,09,01,11,47,14.00
2008,09,01,11,48,14.10
2008,09,01,11,49,14.20
2008,09,01,11,50,14.20
2008,09,01,11,51,14.20
2008,09,01,11,52,14.00
2008,09,01,11,53,13.90
2008,09,01,11,54,14.00
2008,09,01,11,55,14.00
2008,09,01,11,56,14.10
2008,09,01,11,57,14.10
2008,09,01,11,58,14.30
2008,09,01,11,59,14.50
2008,09,01,12,00,14.40
2008,09,01,12,01,14.40
2008,09,01,12,02,14.30
2008,09,01,12,03,14.20
2008,09,01,12,04,14.20
2008,09,01,12,05,14.20
2008,09,01,12,06,14.20
2008,09,01,12,07,14.30
2008,09,01,12,08,14.20
2008,09,01,12,09,14.20
2008,09,01,12,10,14.10
2008,09,01,12,11,14.10
2008,09,01,12,12,14.10
2008,09,01,12,13,14.10
2008,09,01,12,14,14.10
2008,09,01,12,15,14.10
2008,09,01,12,16,14.10
2008,09,01,12,17,14.10
2008,09,01,12,18,14.00
2008,09,01,12,19,13.90
2008,09,01,12,20,13.80
2008,09,01,12,21,13.80
2008,09,01,12,22,14.00
2008,09,01,12,23,14.10
2008,09,01,12,24,14.20
2008,09,01,12,25,14.20
2008,09,01,12,26,14.20
2008,09,01,12,27,14.20
2008,09,01,12,28,14.20
2008,09,01,12,29,14.20
2008,09,01,12,30,14.20
2008,09,01,12,31,14.20
2008,09,01,12,32,14.20
2008,09,01,12,33,14.20
2008,09,01,12,34,14.10
2008,09,01,12,35,14.10
2008,09,01,12,36,14.20
2008,09,01,12,37,14.40
2008,09,01,12,38,14.50
2008,09,01,12,39,14.40
2008,09,01,12,40,14.40
2008,09,01,12,41,14.40
2008,09,01,12,42,14.40
2008,09,01,12,43,14.50
2008,09,01,12,44,14.50
2008,09,01,12,45,14.40
2008,09,01,12,46,14.20
2008,09,01,12,47,14.20
2008,09,01,12,48,14.30
2008,09,01,12,49,14.50
2008,09,01,12,50,14.60
2008,09,01,12,51,14.70
2008,09,01,12,52,14.70
2008,09,01,12,53,14.80
2008,09,01,12,54,14.90
2008,09,01,12,55,15.00
2008,09,01,12,56,15.00
2008,09,01,12,57,15.10
2008,09,01,12,58,15.20
2008,09,01,12,59,15.30
2008,09,01,13,00,15.30
2008,09,01,13,01,15.30
2008,09,01,13,02,15.20
2008,09,01,13,03,15.10
2008,09,01,13,04,15.10
2008,09,01,13,05,15.00
2008,09,01,13,06,14.90
2008,09,01,13,07,15.00
2008,09,01,13,08,15.00
2008,09,01,13,09,14.90
2008,09,01,13,10,15.00
2008,09,01,13,11,15.00
2008,09,01,13,12,14.90
2008,09,01,13,13,14.90
2008,09,01,13,14,14.90
2008,09,01,13,15,14.80
2008,09,01,13,16,15.00
2008,09,01,13,17,15.00
2008,09,01,13,18,14.90
2008,09,01,13,19,14.80
2008,09,01,13,20,14.70
2008,09,01,13,21,14.70
2008,09,01,13,22,14.60
2008,09,01,13,23,14.70
2008,09,01,13,24,14.70
2008,09,01,13,25,14.60
2008,09,01,13,26,14.60
2008,09,01,13,27,14.70
2008,09,01,13,28,14.90
2008,09,01,13,29,15.10
2008,09,01,13,30,15.20
2008,09,01,13,31,15.30
2008,09,01,13,32,15.30
2008,09,01,13,33,15.30
2008,09,01,13,34,15.30
2008,09,01,13,35,15.20
2008,09,01,13,36,15.00
2008,09,01,13,37,15.00
2008,09,01,13,38,15.20
2008,09,01,13,39,15.30
2008,09,01,13,40,15.20
2008,09,01,13,41,15.10
2008,09,01,13,42,15.10
2008,09,01,13,43,15.20
2008,09,01,13,44,15.20
2008,09,01,13,45,15.10
2008,09,01,13,46,15.20
2008,09,01,13,47,15.40
2008,09,01,13,48,15.50
2008,09,01,13,49,15.60
2008,09,01,13,50,15.60
2008,09,01,13,51,15.80
2008,09,01,13,52,15.80
2008,09,01,13,53,15.80
2008,09,01,13,54,15.80
2008,09,01,13,55,15.90
2008,09,01,13,56,16.00
2008,09,01,13,57,16.10
2008,09,01,13,58,16.10
2008,09,01,13,59,16.10
2008,09,01,14,00,16.10
2008,09,01,14,01,16.00
2008,09,01,14,02,15.90
2008,09,01,14,03,15.80
2008,09,01,14,04,15.90
2008,09,01,14,05,16.10
2008,09,01,14,06,16.10
2008,09,01,14,07,16.10
2008,09,01,14,08,16.10
2008,09,01,14,09,16.20
2008,09,01,14,10,16.30
2008,09,01,14,11,16.40
2008,09,01,14,12,16.70
2008,09,01,14,13,16.90
2008,09,01,14,14,16.90
2008,09,01,14,15,17.00
2008,09,01,14,16,16.80
2008,09,01,14,17,16.80
2008,09,01,14,18,16.90
2008,09,01,14,19,16.90
2008,09,01,14,20,16.90
2008,09,01,14,21,17.00
2008,09,01,14,22,17.00
2008,09,01,14,23,17.10
2008,09,01,14,24,17.20
2008,09,01,14,25,17.30
2008,09,01,14,26,17.20
2008,09,01,14,27,17.20
2008,09,01,14,28,17.30
2008,09,01,14,29,17.30
2008,09,01,14,30,17.40
2008,09,01,14,31,17.50
2008,09,01,14,32,17.70
2008,09,01,14,33,17.90
2008,09,01,14,34,18.10
2008,09,01,14,35,18.20
2008,09,01,14,36,18.30
2008,09,01,14,37,18.40
2008,09,01,14,38,18.40
2008,09,01,14,39,18.40
2008,09,01,14,40,18.50
2008,09,01,14,41,18.50
2008,09,01,14,42,18.70
2008,09,01,14,43,18.80
2008,09,01,14,44,18.80
2008,09,01,14,45,18.90
2008,09,01,14,46,19.00
2008,09,01,14,47,19.10
2008,09,01,14,48,19.20
2008,09,01,14,49,19.20
2008,09,01,14,50,19.10
2008,09,01,14,51,19.10
2008,09,01,14,52,18.90
2008,09,01,14,53,18.90
2008,09,01,14,54,19.00
2008,09,01,14,55,19.10
2008,09,01,14,56,19.10
2008,09,01,14,57,19.10
2008,09,01,14,58,19.10
2008,09,01,14,59,19.20
2008,09,01,15,00,19.20
2008,09,01,15,01,19.10
2008,09,01,15,02,19.10
2008,09,01,15,03,19.10
2008,09,01,15,04,19.10
2008,09,01,15,05,19.10
2008,09,01,15,06,19.10
2008,09,01,15,07,19.10
2008,09,01,15,08,19.10
2008,09,01,15,09,19.10
2008,09,01,15,10,19.10
2008,09,01,15,11,19.10
2008,09,01,15,12,19.10
2008,09,01,15,13,19.10
2008,09,01,15,14,19.10
2008,09,01,15,15,19.10
2008,09,01,15,16,19.10
2008,09,01,15,17,19.10
2008,09,01,15,18,19.10
2008,09,01,15,19,19.10
2008,09,01,15,20,19.10
2008,09,01,15,21,19.10
2008,09,01,15,22,19.10
2008,09,01,15,23,19.10
2008,09,01,15,24,19.10
2008,09,01,15,25,19.10
2008,09,01,15,26,19.10
2008,09,01,15,27,19.00
2008,09,01,15,28,19.10
2008,09,01,15,29,19.10
2008,09,01,15,30,19.10
2008,09,01,15,31,19.10
2008,09,01,15,32,19.10
2008,09,01,15,33,19.10
2008,09,01,15,34,19.10
2008,09,01,15,35,19.10
2008,09,01,15,36,19.10
2008,09,01,15,37,19.10
2008,09,01,15,38,19.00
2008,09,01,15,39,18.90
2008,09,01,15,40,18.90
2008,09,01,15,41,18.90
2008,09,01,15,42,18.90
2008,09,01,15,43,18.90
2008,09,01,15,44,18.90
2008,09,01,15,45,18.90
2008,09,01,15,46,18.90
2008,09,01,15,47,18.90
2008,09,01,15,48,18.90
2008,09,01,15,49,18.90
2008,09,01,15,50,18.90
2008,09,01,15,51,18.90
2008,09,01,15,52,18.80
2008,09,01,15,53,18.80
2008,09,01,15,54,18.80
2008,09,01,15,55,18.90
2008,09,01,15,56,18.90
2008,09,01,15,57,18.90
2008,09,01,15,58,19.00
2008,09,01,15,59,19.10
2008,09,01,16,00,19.30
2008,09,01,16,01,19.40
2008,09,01,16,02,19.40
2008,09,01,16,03,19.50
2008,09,01,16,04,19.60
2008,09,01,16,05,19.60
2008,09,01,16,06,19.70
2008,09,01,16,07,19.80
2008,09,01,16,08,19.70
2008,09,01,16,09,19.60
2008,09,01,16,10,19.50
2008,09,01,16,11,19.60
2008,09,01,16,12,19.60
2008,09,01,16,13,19.50
2008,09,01,16,14,19.50
2008,09,01,16,15,19.60
2008,09,01,16,16,19.60
2008,09,01,16,17,19.60
2008,09,01,16,18,19.70
2008,09,01,16,19,19.70
2008,09,01,16,20,19.60
2008,09,01,16,21,19.60
2008,09,01,16,22,19.60
2008,09,01,16,23,19.60
2008,09,01,16,24,19.60
2008,09,01,16,25,19.60
2008,09,01,16,26,19.40
2008,09,01,16,27,19.30
2008,09,01,16,28,19.00
2008,09,01,16,29,18.90
2008,09,01,16,30,18.90
2008,09,01,16,31,18.90
2008,09,01,16,32,18.90
2008,09,01,16,33,19.00
2008,09,01,16,34,19.10
2008,09,01,16,35,19.10
2008,09,01,16,36,19.10
2008,09,01,16,37,19.10
2008,09,01,16,38,19.10
2008,09,01,16,39,19.10
2008,09,01,16,40,19.10
2008,09,01,16,41,19.10
2008,09,01,16,42,19.10
2008,09,01,16,43,19.10
2008,09,01,16,44,19.10
2008,09,01,16,45,19.10
2008,09,01,16,46,19.00
2008,09,01,16,47,18.90
2008,09,01,16,48,18.90
2008,09,01,16,49,18.90
2008,09,01,16,50,18.90
2008,09,01,16,51,18.90
2008,09,01,16,52,19.00
2008,09,01,16,53,19.10
2008,09,01,16,54,19.10
2008,09,01,16,55,19.10
2008,09,01,16,56,19.10
2008,09,01,16,57,19.10
2008,09,01,16,58,19.10
2008,09,01,16,59,19.10
2008,09,01,17,00,19.20
2008,09,01,17,01,19.10
2008,09,01,17,02,19.00
2008,09,01,17,03,18.90
2008,09,01,17,04,18.90
2008,09,01,17,05,18.90
2008,09,01,17,06,18.90
2008,09,01,17,07,18.80
2008,09,01,17,08,18.80
2008,09,01,17,09,18.80
2008,09,01,17,10,18.70
2008,09,01,17,11,18.70
2008,09,01,17,12,18.80
2008,09,01,17,13,18.80
2008,09,01,17,14,18.80
2008,09,01,17,15,18.70
2008,09,01,17,16,18.60
2008,09,01,17,17,18.50
2008,09,01,17,18,18.50
2008,09,01,17,19,18.40
2008,09,01,17,20,18.50
2008,09,01,17,21,18.50
2008,09,01,17,22,18.40
2008,09,01,17,23,18.40
2008,09,01,17,24,18.50
2008,09,01,17,25,18.50
2008,09,01,17,26,18.50
2008,09,01,17,27,18.50
2008,09,01,17,28,18.50
2008,09,01,17,29,18.50
2008,09,01,17,30,18.50
2008,09,01,17,31,18.50
2008,09,01,17,32,18.50
2008,09,01,17,33,18.50
2008,09,01,17,34,18.50
2008,09,01,17,35,18.50
2008,09,01,17,36,18.50
2008,09,01,17,37,18.40
2008,09,01,17,38,18.30